EXPRESS 80

Last updated on Tue Oct 15 2024 00:02:41 GMT+0000 (Coordinated Universal Time)

1 45986U 20053B 24287.71461734 -.00000138 00000+0 00000+0 0 9999 2 45986 0.0343 265.1422 0000398 206.9138 247.9769 1.00272804 15515
UTC large
Height (km)
Speed (km/s)
/
Latitude / Longitude
Inclination (degrees)
Orbital Period (minutes)
Azimuth
Elevation
Range (km)
Doppler Factor

Next 0 passes for location: London (51.5072 / 0.1276)

Sorry there are no passes over London.